This is the latest recevied weather packets stored in our database for station/object IZ1UQG-N2. If no packets are shown the sender has not sent any weather packets the latest 10 day(s).
| Time | Temp. | Humidity | Pressure | Rain* | Wind** | Luminosity | Snow |
|---|---|---|---|---|---|---|---|
| 1787474741 | 20.56° C | 66% | 1018.6 hPa | 0.25 mm | - | 615 W/m² | - |
| 1787474682 | 20.56° C | 66% | 1018.6 hPa | 0.25 mm | - | 615 W/m² | - |
| 1787474621 | 20.56° C | 68% | 1018.7 hPa | 0.25 mm | - | 603 W/m² | - |
| 1787474381 | 20° C | 68% | 1018.6 hPa | 0.25 mm | - | 566 W/m² | - |
| 1787474322 | 20° C | 68% | 1018.6 hPa | 0.25 mm | - | 566 W/m² | - |
| 1787474262 | 19.44° C | 70% | 1018.7 hPa | 0.25 mm | - | 610 W/m² | - |
| 1787474082 | 19.44° C | 70% | 1018.7 hPa | 0.25 mm | - | 612 W/m² | - |
| 1787474022 | 19.44° C | 70% | 1018.7 hPa | 0.25 mm | - | 612 W/m² | - |
| 1787473962 | 19.44° C | 75% | 1018.7 hPa | 0.25 mm | - | 554 W/m² | - |
| 1787473902 | 19.44° C | 75% | 1018.7 hPa | 0.25 mm | - | 554 W/m² | - |
| 1787473842 | 19.44° C | 75% | 1018.7 hPa | 0.25 mm | - | 554 W/m² | - |
| 1787473781 | 19.44° C | 75% | 1018.7 hPa | 0.25 mm | - | 554 W/m² | - |
| 1787473723 | 18.89° C | 77% | 1018.8 hPa | 0 mm | - | 578 W/m² | - |
| 1787473543 | 18.89° C | 77% | 1018.7 hPa | 0 mm | - | 578 W/m² | - |
| 1787473483 | 18.89° C | 77% | 1018.7 hPa | 0 mm | - | 578 W/m² | - |
| 1787473422 | 18.89° C | 77% | 1018.7 hPa | 0 mm | - | 566 W/m² | - |
| 1787473121 | 18.89° C | 77% | 1018.7 hPa | 0 mm | - | 165 W/m² | - |
| 1787473063 | 18.89° C | 77% | 1018.7 hPa | 0 mm | - | 165 W/m² | - |
| 1787473003 | 18.89° C | 74% | 1018.8 hPa | 0 mm | - | 128 W/m² | - |
| 1787472822 | 18.89° C | 73% | 1018.8 hPa | 0 mm | - | 128 W/m² | - |
| 1787472762 | 18.89° C | 73% | 1018.8 hPa | 0 mm | - | 128 W/m² | - |
| 1787472702 | 18.33° C | 74% | 1018.8 hPa | 0 mm | - | 100 W/m² | - |
| 1787472462 | 18.33° C | 75% | 1018.8 hPa | 0.25 mm | - | 95 W/m² | - |
| 1787472401 | 18.33° C | 75% | 1018.8 hPa | 0.25 mm | - | 95 W/m² | - |
| 1787472341 | 18.33° C | 74% | 1018.8 hPa | 0.25 mm | - | 81 W/m² | - |
* Rain latest hour (hover to see other rain measurements)
** Current wind speed in m/s (hover to see current wind gust speed)